Regional Weather Roundup
Issued by NWS Kansas City/Pleasant Hill, MO

Home | Current Version | Previous Version | Graphics & Text | Print | Product List | Glossary Off
Versions: 1 2 3 4 5 6 7 8 9 10 11 12 13 14 15 16 17 18 19 20 21 22 23 24 25 26 27 28 29 30 31 32 33 34 35 36 37 38 39 40 41 42 43 44 45 46 47 48 49 50

000
ASUS43 KEAX 221611
RWREAX

WEATHER ROUNDUP FOR EASTERN KANSAS AND NORTHWEST MISSOURI
NATIONAL WEATHER SERVICE KANSAS CITY/PLEASANT HILL MO
1100 AM CDT MON SEP 22 2014

KSZ040-057-103>105-MOZ028-029-037-043-221700-
...KANSAS CITY METROPOLITAN AREA...

CITY           SKY/WX    TMP DP  RH WIND       PRES   REMARKS
K.C. INTL      MOSUNNY   66  51  58 VRB5      30.33F
K.C. DOWNTOWN  SUNNY     67  51  56 CALM      30.32F
LEES SUMMIT    SUNNY     67  49  52 VRB3      30.34S
OLATHE - IXD   SUNNY     66  50  56 E5        30.33F
OLATHE - OJC   SUNNY     65  50  58 CALM      30.32S
LAWRENCE       SUNNY     65  51  60 E5        30.33F

$$

MOZ001>008-011>017-020>025-030>033-038>040-044>046-053-054-221700-
...NORTHERN AND CENTRAL MISSOURI...

CITY           SKY/WX    TMP DP  RH WIND       PRES   REMARKS
ST. JOSEPH     SUNNY     65  53  65 CALM      30.33F
MOSBY          SUNNY     66  50  55 CALM      30.33S
WHITEMAN AFB   SUNNY     66  52  60 VRB2      30.32S
CLINTON        SUNNY     64  54  68 NE5       30.33F
SEDALIA        SUNNY     66  49  54 E7        30.33S
WARSAW         NOT AVBL
MARSHALL       SUNNY     68  52  56 CALM      30.34S
CHILLICOTHE      N/A     66  51  58 CALM      30.34S
MOBERLY        SUNNY     68  46  45 E3        30.34S
KIRKSVILLE     SUNNY     64  49  57 CALM      30.34S

$$

MOZ041-047>049-056>058-063>065-088>090-097-221700-
...EASTERN AND SOUTHERN MISSOURI...

CITY           SKY/WX    TMP DP  RH WIND       PRES   REMARKS
ST. LOUIS INTL MOSUNNY   67  50  54 NW3       30.32R
SPIRIT OF STL  MOSUNNY   65  51  60 CALM      30.31S
COLUMBIA       SUNNY     66  49  54 NE3       30.32F
JEFFERSON CITY SUNNY     67  47  48 E6        30.32F
MEXICO         SUNNY     68  54  60 NE5       30.32F
HANNIBAL       SUNNY     68  46  45 CALM      30.33F
ROLLA          MOSUNNY   65  49  56 N8        30.31S
LEBANON        SUNNY     66  50  55 NE5       30.33S
OSAGE BEACH    SUNNY     66  48  52 NE8       30.32S
SPRINGFIELD    SUNNY     66  50  56 VRB7      30.31S
BRANSON        MOSUNNY   68  50  52 NE8       30.32S
NEVADA         SUNNY     68  54  60 E5        30.33F
JOPLIN         SUNNY     66  51  58 VRB6      30.32S
WEST PLAINS    MOSUNNY   66  50  56 E5        30.31S

$$

IAZ060-094-KSZ022-034>040-054-083-096-NEZ052-066-093-221700-
...KANSAS...SOUTHEAST NEBRASKA AND IOWA...

CITY           SKY/WX    TMP DP  RH WIND       PRES   REMARKS
TOPEKA         SUNNY     67  52  58 VRB3      30.33S
MANHATTAN      SUNNY     67  52  58 VRB5      30.33S
EMPORIA        SUNNY     66  51  58 E8        30.33S
CHANUTE        SUNNY     67  52  58 CALM      30.32F
WICHITA        MOSUNNY   71  45  39 SE9       30.32F
OMAHA          MOSUNNY   64  50  60 S8        30.32S
LINCOLN        SUNNY     64  53  67 S6        30.33S
FALLS CITY     SUNNY     66  52  60 SE6       30.32S
LAMONI         SUNNY     63  51  65 CALM      30.33S
DES MOINES     MOSUNNY   64  53  67 CALM      30.32F

$$



USA.gov is the U.S. government's official web portal to all federal, state and local government web resources and services.